Date String (YYYY-MM-DD hh:mm:ss) UTC,Instrument flags,Ambient pressure (hPa),Sample flow (lpm),Bypass flow (lpm),Sample temperature (°C),Ambient temperature (°C),ASC tube jacket temperature (°C),LED temperature (°C),Box temperature (°C),Sample RH (%),Span deviation,Mass concentration (μg/m³),Mass concentration (μg/m³),Mass concentration (μg/m³)
DateTimeUTC,F1_M11,P_M11,Q1_M11,Q2_M11,T1_M11,T2_M11,T3_M11,T4_M11,T5_M11,U1_M11,ZSPAN_M11,X0_M11,X2_M11,X1_M11
2021-10-15 17:00:00,,0833.1,4.98,0.00,24.6,23.8,00.0,33.6,26.5,10.4,0000.0,0005.08,0003.06,0002.58
2021-10-15 17:01:00,,0833.1,5.02,0.00,24.6,23.8,00.0,33.6,26.5,10.2,0000.0,0005.10,0003.06,0002.59
2021-10-15 17:02:00,,0833.0,4.99,0.00,24.6,23.9,00.0,33.6,26.6,10.3,0000.0,0004.99,0003.04,0002.57
2021-10-15 17:03:00,,0833.0,5.00,0.00,24.6,23.9,00.0,33.6,26.6,10.1,0000.0,0004.55,0002.98,0002.55
2021-10-15 17:04:00,,0833.1,5.00,0.00,24.7,23.9,00.0,33.7,26.6,10.2,0000.0,0004.54,0002.97,0002.54
2021-10-15 17:05:00,,0833.1,4.99,0.00,24.7,23.9,00.0,33.7,26.6,10.2,0000.0,0004.62,0003.01,0002.57
2021-10-15 17:06:00,,0833.0,5.02,0.00,24.7,23.9,00.0,33.7,26.6,10.0,0000.0,0004.51,0003.01,0002.58
2021-10-15 17:07:00,,0832.9,4.99,0.00,24.7,24.0,00.0,33.7,26.6,09.8,0000.0,0003.94,0003.00,0002.58
2021-10-15 17:08:00,,0832.9,5.00,0.00,24.7,24.0,00.0,33.7,26.7,10.0,0000.0,0003.81,0002.93,0002.56
2021-10-15 17:09:00,,0832.8,5.00,0.00,24.8,24.0,00.0,33.7,26.7,09.9,0000.0,0003.77,0002.91,0002.55
2021-10-15 17:10:00,,0832.8,4.99,0.00,24.8,24.0,00.0,33.7,26.7,10.0,0000.0,0003.68,0002.87,0002.54
2021-10-15 17:11:00,,0832.9,5.01,0.00,24.8,24.0,00.0,33.7,26.7,09.8,0000.0,0003.71,0002.86,0002.55
2021-10-15 17:12:00,,0832.8,4.99,0.00,24.8,24.0,00.0,33.8,26.7,09.7,0000.0,0004.04,0002.87,0002.54
2021-10-15 17:13:00,,0832.9,5.00,0.00,24.8,24.0,00.0,33.8,26.7,09.7,0000.0,0004.11,0002.87,0002.53
2021-10-15 17:14:00,,0832.9,5.00,0.00,24.8,24.0,00.0,33.8,26.7,10.0,0000.0,0004.22,0002.90,0002.53
2021-10-15 17:15:00,,0832.8,5.01,0.00,24.8,24.0,00.0,33.8,26.7,09.5,0000.0,0004.33,0002.90,0002.51
2021-10-15 17:16:00,,0832.8,5.00,0.00,24.8,24.0,00.0,33.8,26.8,09.4,0000.0,0004.37,0002.88,0002.48
2021-10-15 17:17:00,,0832.9,5.00,0.00,24.9,24.1,00.0,33.8,26.7,09.7,0000.0,0005.58,0002.84,0002.44
2021-10-15 17:18:00,,0832.9,5.00,0.00,24.9,24.1,00.0,33.9,26.8,09.6,0000.0,0007.05,0002.76,0002.41
2021-10-15 17:19:00,,0832.8,5.01,0.00,24.9,24.1,00.0,33.9,26.8,09.6,0000.0,0007.12,0002.75,0002.41
2021-10-15 17:20:00,,0832.9,4.99,0.00,24.9,24.1,00.0,33.9,26.8,09.6,0000.0,0007.11,0002.74,0002.39
2021-10-15 17:21:00,,0832.8,5.00,0.00,24.9,24.1,00.0,33.9,26.8,09.9,0000.0,0007.19,0002.73,0002.37
2021-10-15 17:22:00,,0832.8,5.00,0.00,24.9,24.1,00.0,33.9,26.7,09.8,0000.0,0007.34,0002.72,0002.36
2021-10-15 17:23:00,,0832.9,5.00,0.00,24.9,24.1,00.0,33.9,26.8,09.6,0000.0,0008.39,0002.74,0002.36
2021-10-15 17:24:00,,0832.9,5.01,0.00,24.9,24.1,00.0,33.9,26.8,09.7,0000.0,0008.41,0002.74,0002.36
2021-10-15 17:25:00,,0832.9,5.01,0.00,24.9,24.2,00.0,33.9,26.8,10.0,0000.0,0008.38,0002.75,0002.35
2021-10-15 17:26:00,,0832.8,4.99,0.00,24.9,24.2,00.0,33.9,26.8,10.1,0000.0,0008.39,0002.74,0002.33
2021-10-15 17:27:00,,0832.8,5.01,0.00,25.0,24.2,00.0,33.9,26.9,09.9,0000.0,0008.57,0002.76,0002.33
2021-10-15 17:28:00,,0832.9,5.00,0.00,25.0,24.2,00.0,33.9,26.9,10.1,0000.0,0008.05,0002.73,0002.33
2021-10-15 17:29:00,,0832.8,5.00,0.00,25.0,24.2,00.0,33.9,26.9,09.6,0000.0,0007.48,0002.73,0002.31
2021-10-15 17:30:00,,0832.8,5.00,0.00,25.0,24.3,00.0,34.0,26.9,09.6,0000.0,0007.71,0002.73,0002.30
2021-10-15 17:31:00,,0832.8,5.00,0.00,25.0,24.3,00.0,34.0,26.9,09.4,0000.0,0007.84,0002.81,0002.31
2021-10-15 17:32:00,,0832.7,5.00,0.00,25.0,24.3,00.0,34.0,26.9,09.5,0000.0,0007.84,0002.83,0002.32
2021-10-15 17:33:00,,0832.8,4.99,0.00,25.0,24.3,00.0,34.0,26.9,09.7,0000.0,0007.87,0002.85,0002.33
2021-10-15 17:34:00,,0832.7,5.00,0.00,25.1,24.3,00.0,34.0,27.0,09.9,0000.0,0006.30,0002.80,0002.33
2021-10-15 17:35:00,,0832.7,5.01,0.00,25.1,24.4,00.0,34.0,27.0,09.8,0000.0,0005.62,0002.75,0002.32
2021-10-15 17:36:00,,0832.7,4.98,0.00,25.1,24.4,00.0,34.0,27.0,09.5,0000.0,0005.51,0002.70,0002.32
2021-10-15 17:37:00,,0832.7,5.01,0.00,25.1,24.4,00.0,34.1,27.0,10.0,0000.0,0005.42,0002.68,0002.33
2021-10-15 17:38:00,,0832.8,4.99,0.00,25.1,24.4,00.0,34.1,27.1,10.1,0000.0,0005.31,0002.67,0002.35
2021-10-15 17:39:00,,0832.8,5.01,0.00,25.1,24.5,00.0,34.1,27.1,09.4,0000.0,0004.78,0002.69,0002.36
2021-10-15 17:40:00,,0832.8,5.00,0.00,25.2,24.5,00.0,34.1,27.1,09.3,0000.0,0004.75,0002.71,0002.38
2021-10-15 17:41:00,,0832.8,4.99,0.00,25.2,24.5,00.0,34.1,27.1,09.3,0000.0,0003.64,0002.70,0002.39
2021-10-15 17:42:00,,0832.8,4.99,0.00,25.2,24.5,00.0,34.2,27.1,09.4,0000.0,0003.46,0002.68,0002.38
2021-10-15 17:43:00,,0832.8,5.01,0.00,25.2,24.5,00.0,34.2,27.1,09.2,0000.0,0003.58,0002.63,0002.37
2021-10-15 17:44:00,,0832.7,5.00,0.00,25.2,24.5,00.0,34.2,27.1,09.3,0000.0,0003.91,0002.62,0002.36
2021-10-15 17:45:00,,0832.7,4.99,0.00,25.2,24.5,00.0,34.2,27.1,09.2,0000.0,0003.88,0002.61,0002.33
2021-10-15 17:46:00,,0832.8,5.01,0.00,25.2,24.5,00.0,34.2,27.1,09.2,0000.0,0003.87,0002.61,0002.33
2021-10-15 17:47:00,,0832.7,4.99,0.00,25.2,24.5,00.0,34.2,27.1,09.0,0000.0,0004.04,0002.64,0002.33
2021-10-15 17:48:00,,0832.7,4.99,0.00,25.2,24.5,00.0,34.2,27.2,09.2,0000.0,0004.08,0002.64,0002.33
2021-10-15 17:49:00,,0832.8,5.01,0.00,25.3,24.6,00.0,34.2,27.2,09.3,0000.0,0004.13,0002.64,0002.32
2021-10-15 17:50:00,,0832.8,5.00,0.00,25.3,24.6,00.0,34.3,27.2,09.3,0000.0,0004.14,0002.63,0002.30
2021-10-15 17:51:00,,0832.8,5.01,0.00,25.3,24.6,00.0,34.3,27.2,09.3,0000.0,0004.28,0002.65,0002.32
2021-10-15 17:52:00,,0832.8,4.99,0.00,25.3,24.6,00.0,34.3,27.3,09.3,0000.0,0004.37,0002.66,0002.31
2021-10-15 17:53:00,,0832.8,5.00,0.00,25.3,24.6,00.0,34.3,27.3,09.3,0000.0,0004.44,0002.67,0002.32
2021-10-15 17:54:00,,0832.8,5.01,0.00,25.4,24.7,00.0,34.3,27.3,09.4,0000.0,0004.30,0002.68,0002.32
2021-10-15 17:55:00,,0832.8,5.00,0.00,25.4,24.7,00.0,34.3,27.3,09.6,0000.0,0003.99,0002.68,0002.33
2021-10-15 17:56:00,,0832.7,4.98,0.00,25.4,24.7,00.0,34.4,27.4,09.8,0000.0,0004.11,0002.71,0002.32
2021-10-15 17:57:00,,0832.8,5.00,0.00,25.4,24.7,00.0,34.4,27.4,09.5,0000.0,0004.11,0002.70,0002.31
2021-10-15 17:58:00,,0832.8,4.98,0.00,25.4,24.7,00.0,34.4,27.4,09.3,0000.0,0003.96,0002.67,0002.30
2021-10-15 17:59:00,,0832.8,5.01,0.00,25.4,24.8,00.0,34.4,27.4,09.3,0000.0,0003.96,0002.68,0002.30
